Weather History for KFLG - May, 2013

Change the Weather History Date:

Thursday, May 16, 2013

  Actual Average Record
Temperature  
Mean Temperature 54 °F 52 °F  
Max Temperature 73 °F 68 °F 80 °F (1970)
Min Temperature 34 °F 35 °F 16 °F (1955)
Degree Days  
Heating Degree Days 11 13  
Month to date heating degree days 244 245  
Since 1 July heating degree days 6487 6601  
Cooling Degree Days 0 0  
Month to date cooling degree days 0 0  
Year to date cooling degree days 0 0  
Growing Degree Days 4 (Base 50)    
Moisture  
Dew Point 17 °F    
Average Humidity 25    
Maximum Humidity 40    
Minimum Humidity 10    
Precipitation  
Precipitation 0.00 in 0.02 in 0.30 in (1951)
Month to date precipitation 0.23 0.32  
Year to date precipitation 5.23 7.80  
Snow  
Snow 0.00 in 0.00 in 1.90 in (1944)
Month to date snowfall T 0.6  
Since 1 July snowfall 69.7 101.6  
Snow Depth 0.00 in    
Sea Level Pressure  
Sea Level Pressure 29.88 in    
Wind  
Wind Speed 12 mph (SW)    
Max Wind Speed 30 mph    
Max Gust Speed 39 mph    
Visibility 10 miles    
Events      
T = Trace of Precipitation, MM = Missing Value Source: NWS Daily Summary

Daily Weather History Graph

Daily Weather History Graph

Search for Another Location

Airport or City:

Trip Planner

Search our weather history database for the weather conditions in past years. The results will help you decide how hot, cold, wet, or windy it might be!

Date:

Astronomy

May. 16, 2013 Rise Set
Actual Time 5:21 AM MST 7:24 PM MST
Civil Twilight 4:53 AM MST 7:53 PM MST
Nautical Twilight 4:19 AM MST 8:27 PM MST
Astronomical Twilight 3:42 AM MST 9:04 PM MST
Moon 10:54 AM MST (5/16) No Moon Set
Length of Visible Light 14h 59m
Length of Day
14h 02m
Waxing Crescent, 36% of the Moon is Illuminated
May 16
Waxing Crescent
May 17
First Quarter
May 24
Full
May 31
Last Quarter
Jun 8
New

Hourly Weather History & Observations

Time (MST) Temp. Windchill Dew Point Humidity Pressure Visibility Wind Dir Wind Speed Gust Speed Precip Events Conditions
12:57 AM 41.0 °F - 10.0 °F 28% 29.93 in 10.0 mi Calm Calm - N/A   Clear
1:57 AM 39.0 °F 35.7 °F 10.0 °F 30% 29.92 in 10.0 mi SW 4.6 mph - N/A   Clear
2:57 AM 36.0 °F 33.3 °F 10.9 °F 36% 29.93 in 10.0 mi NE 3.5 mph - N/A   Clear
3:57 AM 36.0 °F - 12.0 °F 37% 29.92 in 10.0 mi Calm Calm - N/A   Clear
4:57 AM 36.0 °F - 14.0 °F 41% 29.92 in 10.0 mi Calm Calm - N/A   Clear
5:57 AM 37.0 °F - 15.1 °F 41% 29.94 in 10.0 mi Calm Calm - N/A   Clear
6:57 AM 53.1 °F - 18.0 °F 25% 29.90 in 10.0 mi WSW 3.5 mph - N/A   Clear
7:57 AM 59.0 °F - 21.9 °F 24% 29.90 in 10.0 mi SW 6.9 mph - N/A   Clear
8:57 AM 63.0 °F - 26.1 °F 25% 29.91 in 10.0 mi SSW 16.1 mph - N/A   Clear
9:57 AM 64.9 °F - 26.1 °F 23% 29.93 in 10.0 mi SW 20.7 mph - N/A   Clear
10:57 AM 68.0 °F - 26.1 °F 21% 29.92 in 10.0 mi SSW 20.7 mph 27.6 mph N/A   Clear
11:57 AM 69.1 °F - 23.0 °F 18% 29.93 in 10.0 mi WSW 21.9 mph 29.9 mph N/A   Clear
12:57 PM 70.0 °F - 15.1 °F 12% 29.90 in 10.0 mi SW 18.4 mph 34.5 mph N/A   Clear
1:57 PM 72.0 °F - 16.0 °F 12% 29.87 in 10.0 mi SSW 25.3 mph 32.2 mph N/A   Clear
2:57 PM 72.0 °F - 14.0 °F 11% 29.86 in 10.0 mi SW 21.9 mph 39.1 mph N/A   Clear
3:57 PM 72.0 °F - 12.9 °F 10% 29.85 in 10.0 mi SW 20.7 mph 28.8 mph N/A   Clear
4:57 PM 70.0 °F - 14.0 °F 12% 29.85 in 10.0 mi SSW 20.7 mph 31.1 mph N/A   Clear
5:57 PM 68.0 °F - 17.1 °F 14% 29.84 in 10.0 mi SW 21.9 mph 34.5 mph N/A   Clear
6:57 PM 64.9 °F - 18.0 °F 16% 29.80 in 10.0 mi SW 18.4 mph 23.0 mph N/A   Clear
7:57 PM 60.1 °F - 18.0 °F 20% 29.80 in 10.0 mi SW 12.7 mph - N/A   Clear
8:57 PM 57.9 °F - 17.1 °F 20% 29.81 in 10.0 mi SW 10.4 mph - N/A   Clear
9:57 PM 55.9 °F - 16.0 °F 21% 29.83 in 10.0 mi WSW 5.8 mph - N/A   Clear
10:57 PM 53.1 °F - 17.1 °F 24% 29.82 in 10.0 mi WSW 5.8 mph - N/A   Clear
11:57 PM 53.1 °F - 17.1 °F 24% 29.81 in 10.0 mi SW 8.1 mph - N/A   Clear